Tracking 19176 objects as of 27-May-2018
HD Live streaming from Space Station
objects crossing your sky now

RADUGA 22

Track RADUGA 22 now!
RADUGA 22 is classified as:


NORAD ID: 19596
Int'l Code: 1988-095A
Perigee: 35,751.6 km
Apogee: 35,771.7 km
Inclination: 14.7 °
Period: 1,434.5 minutes
Semi major axis: 42132 km
RCS: 5.0118 m2 (large)
Launch date: October 20, 1988
Source: Commonwealth of Independent States (former USSR) (CIS)
Launch site: TYURATAM MISSILE AND SPACE COMPLEX (TTMTR)
aabbcc
Your satellite tracking list
Your tracking list is empty




NASA's NSSDC Master Catalog

Two Line Element Set (TLE):
1 19596U 88095A   18146.59268587 -.00000118 +00000-0 +00000-0 0  9991
2 19596 014.6950 354.7163 0002382 061.5543 112.7384 01.00386266092138
Source of the keplerian elements: AFSPC